Wind_Speed
16 17 16 15 12 10 15 19 27 19 18 15 10 10 7 8 7 8 12 11 12 12 14 14 10 10 9 10 8 7 7 4 1 4 4 2 1 2 1 2 3 4 4
9 2 5 8 13 12 19 15 26 16 14 13 10 9 7 5 5 5 7 8 12 15 16 11 10 9 12 12 10 7 6 4 3 3 1 0 0 3 4 3 4 3 1
6 4 6 10 13 18 9 14 18 16 13 13 10 8 8 7 6 7 10 8 6 8 13 16 13 9 11 13 11 10 7 4 3 4 6 4 3 3 5 6 7 6 4
5 4 8 10 13 18 14 15 15 15 13 11 10 10 11 9 9 8 10 9 6 1 6 11 12 12 13 13 12 10 9 7 7 8 6 6 4 4 5 8 8 6 8
5 4 16 13 14 15 14 13 13 12 11 11 12 14 10 8 9 5 5 5 2 3 4 6 10 13 16 14 12 12 10 7 7 8 6 2 5 5 5 9 7 7 6
2 2 11 13 16 17 16 15 13 13 12 14 12 9 9 7 5 2 1 2 2 3 5 6 8 14 16 14 11 13 12 10 9 7 8 6 4 2 4 3 6 8 8
3 3 9 13 16 17 17 15 14 12 13 15 12 11 10 9 6 2 2 3 2 1 3 4 7 11 14 13 12 13 13 11 11 7 5 5 4 4 4 2 3 7 8
9 6 13 16 17 18 18 18 18 17 16 14 12 11 10 8 5 1 2 1 3 3 1 3 6 8 10 12 13 12 13 12 12 11 10 8 7 7 6 6 5 7 11
9 10 15 15 18 18 19 17 15 14 12 10 8 8 9 8 6 3 3 4 3 1 1 1 4 7 9 11 12 13 15 15 15 13 13 12 12 11 9 9 9 11 9
11 14 16 14 15 14 18 17 15 13 12 8 5 6 8 8 8 6 8 10 8 8 7 6 5 6 7 9 10 12 14 16 17 16 15 15 15 13 11 11 12 14 13
14 12 18 18 16 15 15 15 14 10 6 6 5 3 4 7 7 7 8 9 11 11 11 10 11 9 8 9 11 13 14 15 17 17 18 18 18 16 15 16 15 16 18
17 14 19 20 18 16 14 13 12 10 8 7 6 4 3 5 5 5 5 5 8 11 13 14 14 15 15 14 13 14 15 16 17 17 17 18 20 18 19 19 20 20 21
21 18 17 17 15 16 13 13 11 10 10 8 5 3 3 5 8 9 10 9 7 8 10 13 16 18 19 18 18 16 18 18 18 19 19 19 21 20 21 22 22 22 24
20 22 22 18 14 14 11 16 14 12 11 9 5 2 2 4 6 9 11 12 12 11 11 12 13 16 19 22 23 22 21 21 22 21 21 21 21 21 23 24 24 25 26
25 25 27 26 23 18 17 16 15 15 14 13 10 7 7 8 9 11 12 14 15 14 13 13 14 15 17 18 20 22 24 25 26 26 27 27 28 28 28 29 28 29 29
31 29 31 33 31 25 21 23 30 22 19 18 16 13 11 11 12 13 14 16 17 18 16 16 16 17 18 18 18 19 21 22 24 26 28 31 32 33 32 32 32 33 34
34 32 31 39 37 36 12 18 14 18 20 24 19 16 15 15 16 16 18 19 21 21 19 17 17 18 19 19 20 20 21 23 24 25 26 28 30 32 33 35 36 38 39
37 32 37 37 41 40 27 19 28 31 25 24 22 19 17 18 18 19 20 22 22 23 22 20 19 19 20 20 20 21 22 23 25 26 28 29 30 31 31 33 34 35 36
34 31 30 30 35 34 30 17 23 24 19 22 22 20 20 21 20 21 23 24 26 24 22 20 20 20 19 19 19 20 21 23 24 26 27 29 30 32 33 33 33 33 34
28 33 32 36 41 24 18 18 18 16 18 22 23 22 23 22 22 24 25 27 26 24 22 21 20 20 20 20 20 20 21 22 24 25 28 30 31 32 33 33 34 35 36
13 20 24 30 22 16 20 11 15 18 21 23 23 23 22 22 24 26 27 27 26 24 23 22 21 22 21 20 20 21 21 21 23 24 27 29 31 32 34 35 35 36 36
14 16 17 21 27 15 5 7 13 15 19 20 20 21 21 22 24 26 27 26 24 22 22 22 20 19 19 19 20 20 20 20 21 22 24 26 28 30 32 33 33 34 34
14 13 13 14 13 7 4 11 13 14 15 17 18 18 20 23 24 25 25 23 22 22 22 22 22 21 21 21 22 22 22 22 22 22 22 23 24 26 28 30 31 32 33
12 14 14 14 10 9 6 15 17 15 13 14 16 18 21 22 23 23 23 21 21 22 23 22 22 22 22 22 24 25 26 27 27 26 25 25 26 26 26 28 31 34 35
11 12 12 12 11 10 13 18 19 15 15 17 18 21 21 21 22 23 22 22 23 22 23 23 23 23 23 22 24 25 26 27 27 27 27 27 27 28 29 30 30 31 32
12 12 13 15 15 17 20 22 20 20 20 20 20 20 21 21 22 23 23 22 22 22 23 23 23 23 23 24 24 25 26 26 26 26 25 24 23 24 24 25 26 27 28
Wind_Direction
285 273 259 249 256 230 205 200 187 204 209 207 206 218 220 227 237 254 257 242 242 237 233 272 224 217 198 188 211 218 213 206 202 272 293 137 227 146 175 190 161 156 187
320 303 185 195 177 162 169 187 190 184 184 190 202 198 202 216 227 247 259 245 232 240 243 216 213 218 217 211 205 206 194 201 246 178 175 333 254 210 178 205 187 210 214
355 117 155 156 186 181 167 177 186 189 188 189 193 189 196 214 232 280 314 289 258 231 235 212 213 215 216 202 206 211 215 210 171 175 209 245 261 186 188 208 205 237 214
327 132 176 162 148 163 177 174 170 176 184 191 185 193 201 218 247 285 305 299 303 340 191 210 217 220 210 209 212 219 224 206 212 224 234 248 260 302 242 223 221 227 230
90 127 151 155 153 156 166 166 172 176 185 185 179 202 203 229 259 285 289 304 290 237 172 206 214 211 200 208 218 218 221 224 224 226 221 212 214 337 292 217 218 204 232
97 252 171 166 165 166 167 172 172 179 179 178 174 178 189 203 217 215 211 269 261 216 186 191 197 199 201 208 219 220 216 217 216 219 234 228 234 301 293 281 181 208 224
106 220 174 165 158 155 155 155 156 154 158 169 169 170 162 165 157 156 103 53 20 256 200 186 194 199 206 218 217 212 216 218 221 223 233 241 237 232 263 226 266 260 228
129 152 163 153 149 148 145 147 149 148 149 155 161 166 172 171 179 148 317 38 44 38 92 195 206 214 215 215 215 211 214 218 227 233 240 245 247 238 249 217 254 275 237
152 183 169 162 162 161 157 154 155 155 150 156 171 176 185 199 225 248 302 270 283 278 340 174 216 226 229 228 220 217 224 230 235 238 240 241 249 246 250 259 260 260 251
160 183 192 180 166 159 153 151 153 165 167 176 187 205 224 233 238 249 247 259 258 255 257 250 231 221 230 239 243 236 232 234 239 241 241 244 248 253 255 255 257 258 259
162 169 179 175 176 168 156 139 152 148 153 165 183 200 227 252 261 267 260 258 254 249 251 253 245 237 232 229 237 242 244 241 242 245 250 251 253 251 257 261 258 261 262
173 165 183 184 187 182 174 184 165 161 162 153 137 113 63 43 18 346 319 291 274 259 248 245 243 244 245 247 245 240 243 245 244 245 246 251 256 256 257 258 260 262 266
184 182 190 192 195 204 207 187 194 186 170 156 142 118 73 37 21 9 358 338 311 285 263 248 244 243 243 242 245 247 247 248 247 246 247 248 252 255 258 259 261 264 267
199 202 208 204 212 202 190 183 197 204 200 186 194 234 333 353 357 356 353 348 335 317 303 286 266 254 250 248 248 248 247 249 251 253 255 254 255 259 263 267 269 269 269
209 214 220 222 219 222 209 218 226 230 225 212 224 248 280 304 326 334 337 336 334 322 301 289 281 272 266 262 260 257 254 250 249 249 251 252 253 255 257 258 260 264 267
215 225 229 228 222 214 218 248 232 236 240 225 229 246 271 289 301 313 320 323 322 320 311 296 285 281 279 276 269 264 262 261 259 259 257 255 255 255 256 257 257 257 259
227 227 237 234 227 210 170 197 238 247 244 229 231 248 268 287 293 304 312 314 316 314 308 297 287 280 276 274 273 272 268 267 267 265 263 263 263 262 261 261 261 260 261
241 241 235 237 217 222 246 235 235 228 243 225 229 244 266 281 288 294 302 307 309 309 307 301 293 285 283 282 280 277 275 273 273 272 271 270 269 270 270 268 266 267 267
245 236 243 250 237 230 270 234 253 245 237 221 231 248 263 276 283 290 298 304 307 306 302 298 294 292 288 286 283 281 281 281 279 278 277 275 273 271 271 272 271 270 268
229 238 248 251 250 249 271 244 245 253 238 225 239 253 265 277 284 292 298 303 303 302 299 297 293 291 290 289 287 286 284 281 279 278 277 277 278 278 278 276 275 273 272
257 246 246 256 266 224 212 235 234 233 234 234 242 253 265 276 285 292 297 299 299 299 298 298 297 295 294 292 290 287 283 281 280 276 274 274 274 275 277 277 277 276 274
256 232 262 259 240 240 217 254 242 224 226 232 244 256 267 278 286 291 295 297 297 295 295 295 293 292 292 293 294 295 296 291 286 282 280 278 278 277 277 277 278 279 280
242 234 250 218 233 237 245 262 254 242 228 238 257 265 275 283 288 292 293 292 293 294 292 292 293 297 301 304 304 304 302 302 301 297 292 288 284 282 281 280 280 279 278
227 225 228 233 241 256 266 252 252 259 247 253 265 276 282 285 290 292 291 291 290 288 287 287 288 292 296 299 300 300 301 300 300 299 298 295 293 290 286 283 281 280 279
216 220 224 231 232 252 256 255 259 255 257 262 268 274 278 283 287 288 290 290 288 285 284 286 288 291 292 293 294 295 295 296 297 297 297 296 296 294 292 292 290 287 282
236 239 242 247 248 249 252 253 246 247 254 261 266 272 279 284 287 288 287 285 285 286 287 289 290 290 291 291 292 293 295 295 296 297 297 297 296 294 294 293 289 288 286
Height
3164 3162 3161 3162 3163 3164 3165 3169 3175 3180 3182 3185 3187 3189 3190 3190 3190 3191 3190 3189 3190 3190 3190 3189 3191 3192 3193 3194 3196 3197 3198 3199 3198 3197 3197 3198 3199 3197 3196 3197 3198 3199 3200
3160 3157 3157 3159 3162 3164 3167 3170 3174 3178 3180 3183 3184 3186 3187 3188 3189 3189 3188 3185 3185 3186 3187 3187 3188 3190 3191 3192 3195 3196 3197 3199 3198 3197 3198 3198 3199 3198 3198 3198 3199 3200 3200
3160 3157 3157 3158 3161 3164 3167 3170 3173 3177 3180 3181 3182 3184 3185 3187 3187 3186 3184 3184 3181 3183 3182 3184 3186 3188 3189 3191 3194 3195 3196 3197 3197 3197 3197 3197 3198 3198 3198 3198 3198 3198 3200
3159 3158 3159 3160 3160 3163 3166 3169 3172 3175 3177 3179 3180 3183 3184 3185 3185 3184 3184 3181 3180 3181 3181 3182 3183 3185 3187 3189 3191 3194 3196 3196 3196 3195 3195 3196 3197 3197 3197 3197 3197 3198 3199
3160 3159 3160 3160 3161 3163 3166 3168 3170 3172 3174 3177 3180 3182 3183 3185 3185 3185 3185 3182 3182 3181 3180 3180 3181 3182 3184 3187 3189 3191 3194 3194 3194 3195 3195 3195 3195 3194 3194 3195 3196 3197 3198
3160 3162 3161 3162 3163 3165 3167 3168 3170 3171 3175 3178 3179 3181 3183 3184 3185 3185 3183 3182 3181 3180 3180 3180 3179 3180 3183 3185 3186 3188 3190 3191 3191 3193 3193 3194 3194 3194 3193 3192 3194 3196 3198
3160 3161 3162 3162 3164 3165 3166 3168 3170 3172 3175 3178 3179 3181 3183 3183 3183 3183 3182 3182 3180 3179 3179 3179 3180 3180 3181 3184 3185 3186 3188 3189 3190 3191 3192 3193 3193 3193 3193 3193 3192 3193 3194
3160 3162 3164 3164 3165 3167 3168 3169 3172 3175 3177 3179 3180 3181 3182 3182 3183 3183 3182 3181 3181 3180 3179 3179 3180 3181 3181 3182 3183 3184 3186 3187 3188 3189 3190 3191 3192 3192 3192 3192 3192 3192 3192
3160 3162 3164 3166 3168 3169 3170 3172 3175 3177 3178 3179 3180 3181 3181 3181 3182 3181 3181 3180 3180 3180 3180 3180 3179 3180 3180 3181 3182 3182 3183 3185 3186 3187 3189 3190 3189 3190 3190 3191 3191 3191 3190
3158 3160 3163 3166 3167 3169 3173 3174 3175 3176 3177 3179 3180 3180 3180 3180 3181 3179 3179 3179 3179 3178 3178 3179 3179 3178 3178 3179 3180 3181 3181 3182 3183 3184 3185 3186 3187 3187 3187 3187 3187 3187 3187
3157 3161 3164 3166 3168 3171 3174 3175 3175 3176 3178 3179 3179 3180 3180 3180 3178 3177 3178 3177 3176 3176 3176 3176 3177 3177 3177 3177 3178 3179 3179 3180 3180 3180 3181 3183 3183 3183 3184 3184 3184 3184 3183
3156 3159 3164 3166 3168 3170 3173 3175 3176 3177 3179 3180 3180 3181 3180 3180 3178 3177 3176 3175 3175 3174 3174 3173 3173 3174 3175 3175 3176 3176 3176 3177 3177 3177 3177 3179 3179 3180 3180 3179 3180 3180 3179
3155 3158 3162 3165 3168 3171 3172 3174 3176 3177 3179 3180 3181 3181 3181 3179 3178 3177 3175 3173 3172 3171 3171 3170 3170 3170 3171 3172 3173 3173 3173 3174 3174 3173 3174 3175 3175 3175 3175 3175 3175 3175 3174
3154 3157 3160 3163 3167 3169 3170 3171 3174 3176 3178 3178 3179 3180 3180 3179 3178 3177 3175 3173 3171 3169 3168 3167 3166 3166 3166 3166 3167 3168 3169 3170 3170 3170 3170 3170 3171 3171 3170 3170 3169 3169 3168
3150 3152 3156 3160 3164 3167 3169 3168 3170 3174 3176 3176 3177 3177 3177 3176 3176 3175 3174 3172 3170 3168 3166 3164 3163 3162 3162 3162 3163 3162 3163 3164 3164 3164 3164 3164 3165 3165 3165 3164 3165 3163 3162
3146 3149 3153 3157 3160 3163 3168 3169 3168 3170 3172 3172 3173 3174 3175 3174 3174 3173 3171 3169 3167 3165 3163 3161 3159 3157 3156 3156 3156 3156 3156 3156 3157 3157 3157 3157 3157 3157 3157 3157 3157 3157 3156
3142 3145 3149 3149 3150 3152 3154 3162 3169 3169 3167 3167 3169 3171 3172 3172 3171 3170 3169 3166 3164 3162 3159 3157 3156 3153 3152 3151 3150 3150 3150 3150 3149 3149 3149 3149 3148 3148 3148 3148 3147 3148 3147
3136 3137 3139 3138 3134 3143 3135 3156 3161 3164 3164 3164 3166 3167 3168 3169 3168 3167 3165 3163 3160 3157 3155 3153 3151 3149 3148 3147 3146 3145 3144 3143 3143 3142 3141 3141 3140 3139 3140 3139 3139 3138 3138
3129 3132 3134 3135 3129 3131 3144 3147 3152 3156 3158 3160 3162 3163 3164 3165 3164 3163 3161 3158 3155 3152 3149 3147 3146 3145 3143 3142 3141 3140 3139 3137 3136 3134 3133 3133 3131 3130 3131 3130 3130 3129 3128
3126 3130 3130 3131 3132 3134 3137 3144 3147 3150 3153 3156 3158 3160 3160 3160 3159 3158 3156 3153 3150 3147 3144 3143 3141 3139 3138 3137 3135 3134 3133 3131 3129 3127 3125 3124 3123 3122 3121 3120 3119 3119 3118
3124 3126 3129 3131 3131 3130 3136 3137 3142 3145 3150 3152 3154 3155 3155 3154 3153 3152 3149 3146 3144 3142 3139 3138 3136 3135 3133 3132 3130 3129 3127 3125 3123 3121 3119 3117 3115 3114 3112 3110 3110 3109 3109
3122 3123 3123 3121 3129 3130 3128 3132 3137 3140 3144 3147 3149 3149 3149 3149 3147 3146 3144 3141 3139 3137 3134 3132 3131 3129 3127 3125 3123 3122 3121 3119 3117 3115 3113 3110 3108 3107 3105 3103 3102 3100 3099
3120 3121 3122 3124 3126 3126 3125 3130 3134 3138 3140 3142 3143 3144 3144 3143 3141 3139 3138 3136 3133 3131 3130 3127 3125 3123 3121 3119 3117 3115 3113 3113 3111 3109 3107 3104 3102 3100 3097 3096 3094 3091 3090
3119 3120 3121 3121 3122 3124 3124 3129 3132 3133 3134 3136 3137 3138 3138 3136 3134 3132 3131 3129 3127 3126 3125 3122 3119 3118 3116 3113 3112 3110 3107 3105 3103 3102 3100 3098 3096 3093 3091 3089 3086 3083 3082
3117 3118 3118 3120 3121 3122 3123 3126 3128 3129 3131 3132 3133 3133 3131 3130 3128 3127 3125 3123 3123 3120 3120 3118 3115 3113 3110 3108 3107 3107 3104 3101 3098 3095 3093 3091 3088 3086 3083 3080 3078 3075 3073
3112 3113 3115 3118 3119 3120 3121 3123 3125 3127 3129 3129 3127 3126 3125 3124 3122 3120 3118 3118 3117 3115 3113 3112 3110 3108 3104 3102 3101 3099 3097 3094 3091 3089 3086 3084 3081 3079 3076 3074 3071 3068 3066